Location: Stockholm
(59.3330°N, 18.0500°E)
Time: 11:08:59
(UTC+01:00)

FENGYUN 1C DEB - Pass Details

Date: 11 December 2023
Orbit: 841 x 915 km, 98.8° (Epoch: 21 February)

Event Time Altitude Azimuth Distance (km) Brightness Sun altitude
Exits shadow 20:26:45 15° 342° (NNW) 2,172 ? -40.3°
Drops below altitude 10° 20:27:33 10° 342° (NNW) 2,483 ? -40.4°
Sets 20:29:56 0° 342° (NNW) 3,429 ? -40.7°
